RH
32 33 32 32 32 28 25 26 29 32 38 40 44 46 52 57 57 55 57 59 62 67 71 73 75 75 76 77 78 81 76 72 66 56 46 45 48 45 46 50 52 51 48
32 30 29 29 28 28 26 29 27 26 30 35 39 41 42 43 50 58 62 60 61 63 70 74 76 77 77 78 80 82 83 80 71 65 57 51 53 51 48 53 54 54 51
28 27 28 28 27 24 22 24 24 25 26 27 32 32 37 42 45 47 48 55 63 64 67 69 73 78 77 75 81 84 88 87 79 72 68 59 54 52 51 55 58 55 52
30 30 29 26 26 25 24 24 24 24 23 22 22 22 27 29 31 38 42 50 54 59 64 70 77 81 81 82 82 86 87 91 81 81 72 65 62 58 55 55 64 60 54
35 34 32 30 30 30 29 29 30 28 23 22 22 22 23 26 28 30 33 38 41 50 56 63 78 79 84 83 88 90 92 89 89 82 70 71 74 67 60 62 66 61 55
36 36 36 36 37 36 36 31 28 29 25 23 22 18 19 21 25 27 28 32 35 40 48 54 58 72 82 91 90 85 91 91 97 95 96 88 80 78 64 70 73 65 57
41 42 42 39 36 34 32 30 26 22 22 23 23 19 18 20 24 23 26 29 33 32 33 40 49 58 63 68 86 88 88 88 99 98 94 94 92 82 73 69 78 71 67
44 43 38 35 34 33 31 28 28 28 26 24 24 22 22 23 26 26 26 26 30 33 37 42 46 49 58 65 73 73 87 86 91 87 88 90 96 93 85 85 87 77 69
43 43 41 38 37 35 32 30 26 25 26 24 24 24 24 24 26 29 32 32 32 36 40 42 48 53 56 61 69 71 74 86 89 85 89 95 95 95 96 95 92 79 69
43 41 41 38 34 33 30 30 27 26 28 26 27 27 29 31 32 39 42 40 43 43 46 48 52 53 59 67 67 71 70 77 86 94 98 98 99 99 98 94 91 84 79
40 37 34 34 33 31 28 27 29 30 32 33 36 40 39 41 44 45 50 51 51 56 51 53 59 64 69 74 79 78 79 79 83 86 84 94 99 98 98 97 96 93 90
37 33 29 26 28 30 30 33 33 36 41 44 47 51 59 66 59 54 53 48 44 47 57 51 59 68 73 82 87 88 86 87 83 83 84 90 91 92 98 96 97 97 91
31 27 24 24 24 29 32 36 42 43 47 51 58 61 63 63 65 62 58 48 44 42 44 58 63 75 85 91 96 96 90 85 86 90 87 87 88 91 98 97 99 95 94
21 22 23 25 28 32 33 35 42 49 56 62 66 71 75 75 74 72 67 59 50 47 46 54 66 80 87 92 96 97 96 90 94 96 94 90 90 91 97 96 95 96 97
26 30 27 27 33 36 37 41 47 51 61 70 71 76 76 73 71 71 68 61 54 52 50 52 54 65 82 84 94 97 99 98 97 98 98 98 96 96 95 95 96 98 98
25 25 26 29 33 37 39 45 46 48 52 57 59 66 69 70 70 67 66 60 52 44 39 48 53 50 59 69 90 99 98 98 97 97 98 98 98 99 98 98 98 98 97
22 24 26 30 35 40 48 52 50 50 56 61 61 61 63 66 66 64 66 63 57 48 40 37 42 48 46 54 74 92 98 99 98 98 97 96 97 98 98 98 98 97 98
31 33 35 36 35 34 36 44 45 45 49 54 52 47 52 55 59 58 56 57 57 54 46 39 36 39 52 52 63 80 95 98 98 98 98 97 97 97 98 97 97 98 98
43 44 44 47 50 50 48 47 50 48 50 42 41 46 48 45 42 45 44 42 40 46 51 46 40 36 41 55 63 77 92 98 98 98 98 98 97 97 97 98 98 98 98
56 56 56 58 63 62 67 68 66 66 64 60 56 53 48 46 43 40 39 39 39 36 40 44 43 40 37 52 64 75 98 95 98 98 98 98 97 98 98 98 97 97 97
59 61 62 62 69 72 76 79 80 80 83 73 64 58 58 60 61 59 52 44 43 40 36 38 39 42 42 42 60 78 85 93 99 98 98 97 98 97 98 98 98 97 96
61 63 63 65 68 74 79 80 82 88 90 87 77 64 59 63 68 70 64 61 55 51 47 44 41 46 43 47 55 79 94 90 96 99 98 98 98 97 97 97 97 93 86
65 68 71 73 79 81 82 82 88 89 92 93 89 83 81 78 79 79 75 70 70 67 60 51 46 43 46 49 57 78 92 94 93 98 99 98 98 97 97 96 92 90 87
71 74 76 77 73 75 87 95 92 95 90 94 90 83 82 84 90 92 90 88 85 78 73 63 57 53 51 50 58 70 95 97 98 98 98 91 91 91 90 87 86 86 85
77 79 80 79 76 77 85 94 92 92 95 92 82 84 85 92 91 93 98 98 94 88 78 67 63 62 61 64 70 76 90 97 98 94 95 97 97 97 96 94 94 91 92
80 82 83 79 81 83 85 93 97 98 96 84 85 82 84 82 76 79 87 91 89 88 86 83 78 77 77 75 76 83 86 99 93 98 98 92 93 94 97 97 98 94 89